{"data":{"norad_id":66708,"intl_designator":"2025-276AU","name":"FLOCK 4H-5","alt_names":[],"object_type":"PAYLOAD","status":"ACTIVE","operator":null,"country":"US","launch_date":"2025-11-28","launch_site_code":"AFWTR","launch_vehicle":null,"mission":null,"orbit_class":"UNKNOWN","rcs_meters":null,"size_class":null,"mass_kg":null,"dimensions":null,"purposes":["earth_obs"],"wikipedia_slug":null,"has_3d_model":false,"image_url":null,"decayed_at":null,"tle_current":{"epoch":"2026-05-25T03:21:17.252064Z","epoch_age_seconds":56905,"freshness":"FRESH","line1":"1 66708U 25276AU  26145.13978301  .00005576  00000+0  25972-3 0  9999","line2":"2 66708  97.4182 219.2119 0002179  83.7842 276.3641 15.20306400 26936","mean_motion":15.203064,"eccentricity":0.0002179,"inclination_deg":97.4182,"raan_deg":219.2119,"arg_perigee_deg":83.7842,"mean_anomaly_deg":276.3641,"bstar":0.00025972,"rev_number":2693,"period_min":94.717749001122,"perigee_km":503.41584196793,"apogee_km":506.41547631678,"semimajor_km":6883.0526591424,"source":"CELESTRAK","updated_at":"2026-05-25T13:38:13.346269Z"}}}